Flag for Germany Weather past 2 weeks in Mainz, Rhineland-Palatinate, Germany

Now
66 °F

Passing clouds.


Feels Like: 66 °F
Forecast: 55 / 82 °F
Wind: 7 mph from North

Location: Wiesbaden Airport

Current Time: Jul 25, 2014 at 1:51:08 AM

Latest Report: Jul 25, 2014 at 12:58 AM


Visibility: N/A

Pressure: 29.94 "Hg

Humidity: 73%

Dew point: 57 °F

Location of MainzLocation

Historic Weather in Mainz — Graph

°F

Mainz temperature yesterday

Maximum temperature yesterday: 81 °F (at 1:58 PM)
Minimum temperature yesterday: 67 °F (at 11:58 PM)
Average temperature yesterday: 73 °F

Past Weeks' High & Low Weather Summary

 TemperatureHumidityPressure
High92 °F (Jul 19, 4:58 PM)100% (Jul 10, 12:00 AM)30.19 "Hg (Jul 10, 12:00 AM)
Low55 °F (Jul 10, 12:00 AM)25% (Jul 18, 6:58 PM)29.74 "Hg (Jul 10, 12:00 AM)
Average73 °F66%29.96 "Hg
* Reported Midnight between Jul 9 and Jul 10 — Jul 25 12:58 AM, Mainz, Weather by CustomWeather, © 2014

Note: Actual official high and low records may vary slightly from our data, if they occured in-between our weather recording intervals... More about our weather records

Advertising

Mainz weather history for previous 24 hours

 ConditionsComfort  
Time TempWeatherWind HumidityBarometerVisibility
12:58 AM
Jul 25
66 °FPassing clouds.7 mph73%29.94 "HgN/A
11:58 PM
Jul 24
67 °FOvercast.8 mph71%29.93 "HgN/A
10:58 PM68 °FPartly cloudy.9 mph69%29.94 "HgN/A
9:58 PM68 °FBroken clouds.9 mph65%29.95 "HgN/A
8:58 PM70 °FBroken clouds.10 mph59%29.92 "HgN/A
7:58 PM75 °FPartly sunny.7 mph50%29.92 "HgN/A
6:58 PM75 °FSunny.3 mph45%29.89 "HgN/A
5:58 PM77 °FPassing clouds.8 mph42%29.90 "HgN/A
4:58 PM80 °FPassing clouds.6 mph45%29.89 "HgN/A
3:58 PM81 °FPassing clouds.7 mph39%29.90 "HgN/A
2:58 PM81 °FScattered clouds.7 mph42%29.90 "HgN/A
1:58 PM81 °FPassing clouds.9 mph42%29.91 "HgN/A
12:58 PM79 °FPassing clouds.12 mph45%29.93 "HgN/A
11:55 AM78 °FSunny.13 mph47%29.93 "HgN/A
10:55 AM77 °FPassing clouds.12 mph44%30.15 "HgN/A
9:58 AMN/ASunny.12 mphN/AN/AN/A
8:58 AM73 °FSunny.7 mph55%29.93 "HgN/A
7:58 AM70 °FSunny.2 mph61%29.93 "HgN/A
6:58 AM68 °FPassing clouds.1 mph64%29.91 "HgN/A
5:58 AM68 °FClear.10 mph60%29.91 "HgN/A
4:58 AM69 °FClear.6 mph58%29.91 "HgN/A
3:58 AM70 °FPassing clouds.6 mph56%29.93 "HgN/A
2:58 AM72 °FClear.7 mph53%29.94 "HgN/A
1:58 AM73 °FPassing clouds.8 mph50%29.96 "HgN/A
Weather by CustomWeather, © 2014

See weather overviewHow to use our weather pages